x

8454000 - Providence, Ri (foxr1) Weather Station

12:18 - Tue 27th Jan 2015 All times are EST. -5 hours from GMT.

  • Wind
    16mph, 31mph gusts
  • Sea Temp 37°f
  • Luft Temp 20°f
  • Sea Pressure 1003.4mb
  • 8454000 - Providence, Ri
  • 8454000 - Providence, Ri

More Historic Weather Station data

Upgrade to MSW Pro to gain access to the past 30 days of data for over 8000 Wavebouys and Weather Stations around the globe.

Join Pro

Comparision Forecast

View Surf forecast
   
Di 01/27 12:18 16 31 mph 1003.4mb 37f 20f
12:12 20 31 mph 1003.7mb 37f 20f
12:06 14 28 mph 1004.1mb 37f 21f
12:00 22 31 mph 1004.4mb 38f 21f
Mo 01/26 11:54 16 29 mph 1004.5mb 38f 21f
11:48 15 25 mph 1004.6mb 38f 21f
11:42 21 31 mph 1004.8mb 38f 22f
11:36 15 23 mph 1005mb 37f 22f
11:30 14 26 mph 1005.3mb 37f 22f
11:24 16 28 mph 1005.6mb 37f 23f
11:18 14 24 mph 1005.8mb 37f 23f
11:12 16 24 mph 1005.9mb 37f 25f
11:06 20 28 mph 1006mb 36f 28f
11:00 16 30 mph 1005.9mb 36f 29f
10:54 20 26 mph 1005.9mb 36f 29f
10:48 21 28 mph 1006mb 36f 29f
10:42 17 31 mph 1006.4mb 35f 29f
10:36 18 29 mph 1006.9mb 35f 29f
10:30 16 26 mph 1007.3mb 35f 29f
10:24 17 25 mph 1007.4mb 35f 29f
10:18 16 25 mph 1007.6mb 35f 29f
10:12 16 23 mph 1007.5mb 35f 29f
10:06 21 30 mph 1007.6mb 35f 28f
10:00 17 26 mph 1007.7mb 35f 28f
9:54 15 26 mph 1008mb 35f 28f
9:48 18 25 mph 1008.2mb 35f 28f
9:42 20 25 mph 1008.5mb 35f 28f
9:36 18 24 mph 1008.7mb 35f 28f
9:30 15 23 mph 1009.1mb 35f 28f
9:24 15 26 mph 1009.3mb 35f 28f
9:18 15 22 mph 1009.5mb 35f 28f
9:12 17 31 mph 1009.7mb 35f 28f
9:06 16 28 mph 1009.9mb 35f 28f
9:00 20 29 mph 1010mb 35f 28f
8:54 16 28 mph 1010.2mb 35f 28f
8:48  -  mph 1010.6mb - -
8:42  -  mph 1010.6mb 35f 28f
8:36  -  mph 1010.7mb 35f 28f
8:30 15 20 mph 1010.8mb 35f 28f
8:24 15 21 mph 1011.2mb 35f 28f
8:18 14 21 mph 1011.5mb 35f 28f
8:12 14 21 mph 1011.8mb 35f 28f
8:06 15 20 mph 1011.8mb 35f 28f
8:00 14 21 mph 1011.8mb 35f 28f
7:54 11 20 mph 1011.9mb 35f 28f
7:48 14 22 mph 1011.9mb 35f 28f
7:42 14 21 mph 1012.1mb 35f 28f
7:36 14 20 mph 1012.3mb 35f 28f
7:30 13 21 mph 1012.7mb 35f 28f
7:24 13 21 mph 1012.9mb 35f 28f
7:18 11 18 mph 1013.1mb 35f 28f
7:12 13 18 mph 1013.3mb 35f 28f
7:06 10 17 mph 1013.3mb 35f 28f
7:00 13 16 mph 1013.2mb 35f 28f
6:54 13 16 mph 1013.2mb 35f 28f
6:48 13 18 mph 1013.3mb 35f 28f
6:42 13 17 mph 1013.3mb 35f 28f
6:36 10 16 mph 1013.4mb 35f 28f
6:30 13 18 mph 1013.3mb 35f 28f
6:24 11 16 mph 1013.4mb 35f 28f
6:18 7 13 mph 1013.5mb 35f 28f
6:12 6 16 mph 1013.4mb 35f 28f
6:06 7 13 mph 1013.4mb 35f 28f
6:00 6 17 mph 1013.5mb 35f 28f
5:54 6 10 mph 1013.5mb 35f 28f
5:48 7 15 mph 1013.7mb 35f 28f
5:42 6 14 mph 1013.9mb 35f 28f
5:36 7 13 mph 1013.9mb 35f 28f
5:30 5 13 mph 1014.1mb 35f 28f
5:24 6 13 mph 1014.1mb 35f 28f
5:18 5 10 mph 1014.3mb 35f 28f
5:12 6 14 mph 1014.2mb 35f 28f
5:06 6 10 mph 1014.2mb 35f 28f
5:00 5 9 mph 1014.3mb 35f 28f
4:54 6 9 mph 1014.2mb 35f 28f
4:48 5 11 mph 1014.3mb 35f 28f
4:42 6 14 mph 1014.1mb 35f 28f
4:36 7 10 mph 1014.1mb 35f 28f
4:30 5 10 mph 1014.1mb 35f 28f
4:24 6 11 mph 1014mb 35f 28f
4:18 6 13 mph 1014mb 35f 28f
4:12 6 10 mph 1014.2mb 35f 28f
4:06 3 8 mph 1014.4mb 35f 28f
4:00 5 9 mph 1014.3mb 35f 28f
3:54 5 7 mph 1014.4mb 36f 27f
3:48 2 9 mph 1014.2mb 36f 27f
3:42 3 8 mph 1014.3mb 36f 26f
3:36 2 10 mph 1014.4mb 37f 26f
3:30 5 10 mph 1014.4mb 37f 26f
3:24 5 10 mph 1014.4mb 37f 26f
3:18 3 9 mph 1014.5mb 37f 25f
3:12 2 6 mph 1014.5mb 37f 25f
3:06 5 8 mph 1014.4mb 37f 25f
3:00 3 10 mph 1014.5mb 37f 25f
2:54 3 10 mph 1014.7mb 37f 25f
2:48 5 10 mph 1014.8mb 37f 25f
2:42 3 10 mph 1014.8mb 37f 25f
2:36 5 9 mph 1014.9mb 37f 25f
2:30 2 13 mph 1015.1mb 37f 25f
2:24 5 11 mph 1015.1mb 37f 25f
2:18 3 14 mph 1015.1mb 37f 25f
2:12 3 10 mph 1015mb 37f 25f
2:06 3 11 mph 1015.1mb 37f 24f
2:00 6 11 mph 1015mb 37f 24f
1:54 5 11 mph 1015.1mb 37f 24f
1:48 3 13 mph 1015.3mb 38f 24f
1:42 6 11 mph 1015.3mb 38f 24f
1:36 6 11 mph 1015.6mb 38f 24f
1:30 3 9 mph 1015.7mb 38f 24f
1:24 6 11 mph 1015.7mb 38f 24f
1:18 6 11 mph 1015.6mb 38f 23f
1:12 5 14 mph 1015.7mb 38f 23f
1:06 2 9 mph 1016mb 38f 23f
1:00 5 11 mph 1016.1mb 38f 23f
12:54 3 9 mph 1016.1mb 38f 23f
12:48 6 13 mph 1016.3mb 38f 23f
12:42 6 9 mph 1016.3mb 38f 22f
12:36 6 10 mph 1016.1mb 38f 22f
12:30 5 11 mph 1016.3mb 38f 22f
12:24 6 10 mph 1016.6mb 38f 22f
12:18 6 14 mph 1016.8mb 38f 22f
12:12 3 8 mph 1017mb 38f 22f
12:06 3 9 mph 1017.2mb 38f 22f
12:00 2 11 mph 1017.3mb 38f 22f
11:54 7 13 mph 1017.3mb 38f 22f
11:48 3 9 mph 1017.5mb 38f 21f
11:42 3 9 mph 1017.7mb 38f 21f
11:36 1 9 mph 1017.8mb 38f 21f
11:30 3 10 mph 1017.9mb 38f 21f
11:24 5 11 mph 1017.7mb 38f 20f
11:18 3 10 mph 1018mb 38f 20f
11:12 6 13 mph 1018.2mb 38f 20f
11:06 5 11 mph 1018.4mb 38f 19f
11:00 5 11 mph 1018.5mb 38f 20f
10:54 3 11 mph 1018.6mb 38f 19f
10:48 3 10 mph 1018.5mb 38f 19f
10:42 5 10 mph 1018.5mb 38f 19f
10:36 3 9 mph 1018.6mb 38f 19f
10:30 6 9 mph 1018.7mb 38f 19f
10:24 3 10 mph 1018.8mb 37f 19f
10:18 2 10 mph 1018.8mb 37f 18f
10:12 6 10 mph 1018.8mb 37f 18f
10:06 6 11 mph 1018.6mb 36f 17f
10:00 5 13 mph 1018.6mb 36f 17f
9:54 5 10 mph 1018.7mb 36f 18f
9:48 3 10 mph 1018.7mb 36f 17f
9:42 6 11 mph 1018.8mb 35f 17f
9:36 6 14 mph 1018.8mb 35f 17f
9:30 5 11 mph 1018.8mb 35f 17f
9:24 3 11 mph 1018.8mb 36f 17f
9:18 5 13 mph 1018.8mb 36f 17f
9:12 6 14 mph 1018.8mb 36f 16f
9:06 6 14 mph 1018.8mb 36f 16f
9:00 8 15 mph 1018.9mb 36f 16f
8:54 7 15 mph 1019mb 36f 16f
8:48 7 14 mph 1019mb 36f 16f
8:42 3 11 mph 1019mb 36f 17f
8:36 5 11 mph 1019mb 36f 16f
8:30 3 9 mph 1019mb 36f 16f
8:24 6 11 mph 1019.1mb 36f 16f
8:18 5 15 mph 1019.1mb 36f 16f
8:12 5 10 mph 1019mb 36f 16f
8:06 6 14 mph 1019mb 36f 16f
8:00 5 11 mph 1019.1mb 36f 16f
7:54 5 10 mph 1019.1mb 35f 16f
7:48 5 10 mph 1019.1mb 35f 16f
7:42 6 14 mph 1019.1mb 35f 16f
7:36 6 14 mph 1019.3mb 35f 15f
7:30 6 13 mph 1019.2mb 35f 16f
7:24 6 13 mph 1019.2mb 35f 16f
7:18 3 9 mph 1019.1mb 35f 16f
7:12 3 8 mph 1019mb 35f 17f
7:06 6 11 mph 1019mb 35f 16f
7:00 6 10 mph 1019.1mb 35f 16f
6:54 5 10 mph 1019mb 35f 17f
6:48 6 11 mph 1019.1mb 35f 17f
6:42 5 13 mph 1019mb 35f 17f
6:36 5 14 mph 1019mb 35f 17f
6:30 6 13 mph 1019mb 35f 17f
6:24 6 9 mph 1018.9mb 35f 17f
6:18 2 7 mph 1019.1mb 35f 17f
6:12 7 9 mph 1019mb 35f 17f
6:06 5 9 mph 1019mb 35f 17f
6:00 5 9 mph 1019mb 35f 17f
5:54 2 10 mph 1018.9mb 35f 17f
5:48 3 10 mph 1018.8mb 35f 17f
5:42 3 10 mph 1018.7mb 36f 17f
5:36 3 9 mph 1018.6mb 36f 17f
5:30 6 11 mph 1018.5mb 36f 18f
5:24 7 11 mph 1018.5mb 36f 17f
5:18 3 9 mph 1018.6mb 36f 17f
5:12 6 10 mph 1018.5mb 36f 17f
5:06 3 9 mph 1018.4mb 36f 17f
5:00 3 11 mph 1018.4mb 36f 17f
4:54 3 11 mph 1018mb 36f 18f
4:48 6 10 mph 1018.1mb 36f 18f
4:42 6 16 mph 1018.2mb 36f 18f
4:36 6 15 mph 1018.2mb 36f 19f
4:30 5 11 mph 1018.1mb 36f 19f
4:24 6 13 mph 1018.1mb 36f 19f
4:18 5 13 mph 1017.9mb 36f 19f
4:12 2 10 mph 1017.9mb 36f 19f
4:06 5 11 mph 1017.9mb 36f 19f
4:00 6 13 mph 1017.9mb 36f 19f
3:54 5 10 mph 1018mb 36f 20f
3:48 6 10 mph 1017.8mb 36f 20f
3:42 7 13 mph 1017.8mb 36f 20f
3:36 7 11 mph 1017.8mb 36f 20f
3:30 2 10 mph 1017.7mb 36f 20f
3:24 2 9 mph 1017.7mb 36f 20f
3:18 5 13 mph 1017.8mb 36f 21f
3:12 3 8 mph 1017.7mb 36f 21f
3:06 3 8 mph 1017.8mb 36f 21f
3:00 3 9 mph 1017.7mb 37f 21f
2:54 3 7 mph 1017.6mb 37f 21f
2:48 5 9 mph 1017.5mb 37f 21f
2:42 6 10 mph 1017.4mb 37f 21f
2:36 7 14 mph 1017.2mb 37f 22f
2:30 7 13 mph 1017.2mb 37f 22f
2:24 5 10 mph 1017.2mb 37f 22f
2:18 5 9 mph 1017.1mb 37f 22f
2:12 5 11 mph 1017.2mb 37f 22f
2:06 6 13 mph 1017.1mb 37f 22f
2:00 6 10 mph 1017.1mb 37f 22f
1:54 5 8 mph 1017.1mb 37f 22f
1:48 6 14 mph 1017.1mb - 22f
1:42 6 15 mph 1016.9mb - 22f
1:36 5 13 mph 1016.7mb - 22f
1:30 3 9 mph 1016.5mb 37f 23f
1:24 6 10 mph 1016.7mb 37f 22f
1:18 6 11 mph 1016.7mb 37f 23f
1:12 5 8 mph 1016.5mb 37f 23f
1:06 5 10 mph 1016.5mb 37f 23f
1:00 6 13 mph 1016.4mb 37f 23f
12:54 2 8 mph 1016.4mb 37f 23f
12:48 3 15 mph 1016.4mb 38f 23f
12:42 5 13 mph 1016.3mb 38f 23f
12:36 7 13 mph 1016.2mb 38f 23f
12:30 3 11 mph 1016.3mb 38f 23f
12:24 8 11 mph 1016.1mb 38f 23f
12:18 6 9 mph 1016.1mb 38f 24f
12:12 7 10 mph 1016.2mb 38f 24f
12:06 8 11 mph 1016.1mb 38f 24f
12:00 8 11 mph 1016.3mb 38f 24f
So 01/25 11:54 7 10 mph 1016.5mb 38f 24f
11:48 7 9 mph 1016.5mb 38f 24f
11:42 6 7 mph 1016.5mb 38f 24f
11:36 2 7 mph 1016.4mb 38f 24f
11:30 5 9 mph 1016.2mb 38f 24f
11:24 6 8 mph 1016.1mb 38f 24f
11:18 6 10 mph 1016mb 38f 24f
11:12 8 10 mph 1015.6mb 38f 24f
11:06 7 10 mph 1015.4mb 38f 24f
11:00 8 11 mph 1015.5mb 38f 25f
10:54 6 8 mph 1015.4mb 38f 25f
10:48 7 9 mph 1015mb 38f 25f
10:42 6 9 mph 1014.9mb 38f 25f
10:36 8 14 mph 1014.7mb 38f 25f
10:30 10 14 mph 1014.7mb 38f 25f
10:24 11 15 mph 1014.5mb 38f 25f
10:18 8 13 mph 1014.6mb 38f 25f
10:12 9 13 mph 1014.5mb 38f 25f
10:06 11 16 mph 1014.3mb 38f 26f
10:00 10 13 mph 1014.2mb 38f 26f
9:54 10 13 mph 1014.3mb 37f 26f
9:48 7 9 mph 1014.2mb 37f 26f
9:42 7 10 mph 1014.1mb 37f 26f
9:36 8 11 mph 1014.1mb 37f 26f
9:30 7 9 mph 1014.1mb 37f 26f
9:24 7 10 mph 1014mb 37f 26f
9:18 5 7 mph 1013.9mb 37f 26f
9:12 5 11 mph 1013.7mb 37f 27f
9:06 7 13 mph 1013.5mb 37f 27f
9:00 9 13 mph 1013.4mb 37f 27f
8:54 10 15 mph 1013.2mb 37f 27f
8:48 9 15 mph 1013.1mb 37f 27f
8:42 8 17 mph 1013.3mb 37f 27f
8:36 8 13 mph 1013.1mb 37f 27f
8:30 8 11 mph 1012.9mb 37f 28f
8:24 8 14 mph 1012.8mb 37f 28f
8:18 8 13 mph 1013mb 37f 28f
8:12 10 13 mph 1012.9mb 37f 28f
8:06 8 15 mph 1012.7mb 37f 28f
8:00 11 15 mph 1012.6mb 37f 28f
7:54 10 13 mph 1012.8mb 37f 28f
7:48 7 13 mph 1012.6mb 37f 29f
7:42 11 16 mph 1012.4mb 37f 29f
7:36 8 14 mph 1012.6mb 37f 29f
7:30 10 15 mph 1012.3mb 37f 29f
7:24 10 16 mph 1012.2mb 37f 29f
7:18 8 16 mph 1012.1mb 36f 29f
7:12 10 14 mph 1011.8mb 36f 29f
7:06 9 14 mph 1011.6mb 36f 30f
7:00 11 14 mph 1011.7mb 36f 30f
6:54 7 13 mph 1011.6mb 36f 30f
6:48 8 13 mph 1011.6mb 36f 30f
6:42 6 18 mph 1011.5mb 36f 30f
6:36 15 20 mph 1011.1mb 36f 30f
6:30 8 13 mph 1011.1mb 36f 30f
6:24 8 13 mph 1010.9mb 36f 30f
6:18 11 17 mph 1010.5mb 36f 30f
6:12 11 17 mph 1010.2mb 36f 31f
6:06 9 14 mph 1010.3mb 36f 31f
6:00 10 17 mph 1009.9mb 36f 31f
5:54 7 13 mph 1009.6mb 36f 31f
5:48 7 11 mph 1009.4mb 36f 31f
5:42 9 18 mph 1009.3mb 36f 31f
5:36 9 14 mph 1009mb 36f 31f
5:30 10 15 mph 1008.9mb 36f 31f
5:24 8 15 mph 1008.9mb 36f 32f
5:18 9 14 mph 1008.6mb 36f 32f
5:12 7 15 mph 1008.4mb 36f 32f
5:06 9 17 mph 1008.4mb 36f 32f
5:00 8 16 mph 1008.3mb 36f 32f
4:54 10 16 mph 1008.3mb 36f 32f
4:48 9 15 mph 1008.1mb 36f 33f
4:42 7 11 mph 1008mb 36f 33f
4:36 7 13 mph 1007.9mb 36f 33f
4:30 11 15 mph 1007.6mb 36f 33f
4:24 9 17 mph 1007.4mb 36f 33f
4:18 11 20 mph 1007.1mb 36f 33f
4:12 11 17 mph 1007mb 36f 34f
4:06 15 21 mph 1006.9mb 36f 34f
4:00 14 23 mph 1006.7mb 36f 34f
3:54 20 25 mph 1006.6mb 36f 34f
3:48 16 23 mph 1006.6mb 36f 34f
3:42 13 22 mph 1006.7mb 36f 35f
3:36 14 17 mph 1006.6mb 36f 35f
3:30 11 16 mph 1006.5mb 36f 35f
3:24 9 17 mph 1006.4mb 36f 36f
3:18 13 22 mph 1006.1mb 36f 36f
3:12 15 20 mph 1006.1mb 36f 36f
3:06 11 21 mph 1006mb 36f 36f
3:00 15 22 mph 1005.8mb 36f 36f
2:54 11 22 mph 1005.6mb 36f 36f
2:48 10 23 mph 1005.5mb 36f 36f
2:42 20 28 mph 1005.4mb 36f 36f
2:36 18 24 mph 1005.3mb 36f 37f
2:30 16 22 mph 1005.2mb 36f 37f
2:24 11 23 mph 1005mb 36f 37f
2:18 18 24 mph 1005mb 36f 37f
2:12 17 28 mph 1004.8mb 37f 37f
2:06 17 22 mph 1004.6mb 37f 37f
2:00 14 20 mph 1004.5mb 37f 37f
1:54 15 22 mph 1004.3mb 37f 37f
1:48 15 25 mph 1004.2mb 37f 37f
1:42 17 22 mph 1004.1mb 37f 37f
1:36 13 21 mph 1004mb 37f 37f
1:30 14 24 mph 1003.9mb 37f 37f
1:24 15 22 mph 1003.9mb 37f 37f
1:18 18 24 mph 1003.6mb 37f 37f
1:12 13 25 mph 1003.5mb 37f 37f
1:06 17 23 mph 1003.4mb 37f 37f
1:00 18 24 mph 1003.4mb 37f 37f
12:54 11 23 mph 1003.4mb 37f 37f
12:48 18 24 mph 1003.3mb 37f 37f
12:42 16 22 mph 1003.3mb 37f 37f
12:36 14 21 mph 1003.4mb 37f 37f
12:30 13 22 mph 1003.3mb 37f 37f
12:24 18 25 mph 1003.3mb 37f 37f
12:18 16 23 mph 1003.4mb 37f 37f
12:12 11 22 mph 1003.5mb 37f 37f
12:06 14 25 mph 1003.5mb 37f 37f
12:00 16 29 mph 1003.4mb 37f 37f
11:54 18 28 mph 1003.3mb 37f 37f
11:48 11 26 mph 1003.3mb 37f 38f
11:42 17 26 mph 1003.3mb 37f 37f
11:36 14 22 mph 1003.2mb 37f 38f
11:30 17 25 mph 1003.2mb 37f 38f
11:24 16 23 mph 1003.2mb 38f 38f
11:18 16 25 mph 1003.2mb 38f 38f
11:12 14 29 mph 1003.2mb 38f 37f
11:06 16 26 mph 1003.2mb 38f 38f
11:00 13 20 mph 1003.1mb 38f 38f
10:54 16 21 mph 1003mb 38f 37f
10:48 16 23 mph 1002.9mb 38f 37f
10:42 13 20 mph 1002.8mb 38f 38f
10:36 13 20 mph 1002.8mb 38f 38f
10:30 15 21 mph 1002.6mb 38f 38f
10:24 14 22 mph 1002.5mb 38f 38f
10:18 11 17 mph 1002.5mb 38f 38f
10:12 7 16 mph 1002.5mb 38f 38f
10:06 11 21 mph 1002.5mb 38f 37f
10:00 13 18 mph 1002.5mb 38f 37f
9:54 15 21 mph 1002.4mb 38f 37f
9:48 10 18 mph 1002.2mb 38f 37f
9:42 11 17 mph 1002.2mb 38f 36f
9:36 10 17 mph 1001.9mb 38f 36f
9:30 10 18 mph 1001.8mb 38f 36f
9:24 11 16 mph 1001.7mb 38f 35f
9:18 8 15 mph 1001.6mb 38f 35f
9:12 11 15 mph 1001.5mb 38f 34f
9:06 11 15 mph 1001.5mb 38f 34f
9:00 9 14 mph 1001.4mb 38f 35f
8:54 8 15 mph 1001.4mb 37f 34f
8:48 8 16 mph 1001.2mb 37f 34f
8:42 8 14 mph 1001.2mb 37f 34f
8:36 8 14 mph 1001mb 37f 34f
8:30 9 14 mph 1001mb 37f 34f
8:24 9 14 mph 1000.9mb 37f 34f
8:18 9 15 mph 1000.7mb 37f 34f
8:12 9 17 mph 1000.6mb 36f 34f
8:06 10 18 mph 1000.5mb 36f 34f
8:00 13 18 mph 1000.5mb 36f 34f
7:54 10 21 mph 1000.3mb 36f 34f
7:48 14 18 mph 1000.3mb 36f 34f
7:42 9 17 mph 1000.1mb 36f 33f
7:36 9 14 mph 1000mb 36f 33f
7:30 9 14 mph 999.9mb 36f 33f
7:24 9 15 mph 999.8mb 36f 33f
7:18 9 14 mph 999.7mb 36f 33f
7:12 8 15 mph 999.6mb 36f 33f
7:06 9 16 mph 999.5mb 36f 33f
7:00 10 15 mph 999.5mb 36f 34f
6:54 10 15 mph 999.3mb 36f 33f
6:48 7 13 mph 999.1mb 36f 33f
6:42 9 16 mph 999mb 36f 33f
6:36 10 20 mph 999mb 36f 34f
6:30 13 20 mph 998.7mb 36f 33f
6:24 10 17 mph 998.7mb 36f 33f
6:18 9 20 mph 998.5mb 36f 33f
6:12 11 20 mph 998.4mb 36f 33f
6:06 10 22 mph 998.3mb 36f 33f
6:00 14 20 mph 998.3mb 36f -
5:54 13 22 mph 998.2mb 36f -
5:48 13 21 mph 998.1mb 36f 33f
5:42 11 21 mph 998mb 36f 33f
5:36 9 18 mph 997.8mb 36f 33f
5:30 9 22 mph 997.6mb 36f 33f
5:24 15 25 mph 997.4mb 36f 33f
5:18 15 26 mph 997.4mb 36f 33f
5:12 11 22 mph 997.3mb 36f 33f
5:06 14 20 mph 997.2mb 36f 33f
5:00 13 21 mph 997.1mb 36f 33f
4:54 15 25 mph 997mb 36f 33f
4:48 10 18 mph 996.8mb 36f 33f
4:42 11 21 mph 996.7mb 36f 33f
4:36 11 21 mph 996.7mb 36f 33f
4:30 10 21 mph 996.7mb 36f 33f
4:24 10 18 mph 996.6mb 36f 33f
4:18 14 23 mph 996.5mb 36f 33f
4:12 13 23 mph 996.5mb 36f 33f
4:06 11 21 mph 996.3mb 36f 33f
4:00 14 22 mph 996.2mb 36f 33f
3:54 14 23 mph 996.2mb 36f 33f
3:48 16 26 mph 996mb 36f 33f
3:42 15 26 mph 995.9mb 36f 33f
3:36 18 28 mph 995.8mb 36f 33f
3:30 15 28 mph 995.7mb 36f 33f
3:24 23 30 mph 995.4mb 36f 33f
3:18 13 25 mph 995.4mb 36f 33f
3:12 16 25 mph 995.2mb 36f 33f
3:06 22 28 mph 995.2mb 36f 33f
3:00 15 25 mph 995.2mb 36f 33f
2:54 15 20 mph 995.2mb 36f 32f
2:48 14 22 mph 995.1mb 36f 32f
2:42 11 21 mph 995.1mb 36f 32f
2:36 8 14 mph 995.2mb 36f 32f
2:30 10 15 mph 995.2mb 36f 32f
2:24 7 18 mph 995.1mb 36f 31f
2:18 10 17 mph 994.9mb 36f 31f
2:12 9 17 mph 994.9mb 37f 31f
2:06 7 17 mph 994.9mb 37f 31f
2:00 10 15 mph 994.8mb 37f 31f
1:54 7 11 mph 994.5mb 37f 31f
1:48 7 13 mph 994.2mb 37f -
1:42 6 13 mph 994.2mb 37f -
1:36 6 14 mph 994.1mb 37f -
1:30 7 11 mph 993.9mb 37f 32f
1:24 6 10 mph 994mb 37f 32f
1:18 7 11 mph 993.8mb 37f 32f
1:12 6 10 mph 993.7mb 37f 32f
1:06 9 17 mph 993.4mb 37f 33f
1:00 9 17 mph 993.4mb 37f 33f
12:54 9 18 mph 993.3mb 37f 33f
12:48 9 15 mph 993mb 37f 33f
12:42 8 15 mph 992.7mb 37f 33f
12:36 8 16 mph 992.8mb 37f 33f
12:30 10 15 mph 992.7mb 38f 33f
12:24 13 20 mph 992.6mb 38f 33f
12:18 10 17 mph 992.5mb 38f 33f
12:12 8 14 mph 992.3mb 38f 33f
12:06 10 16 mph 992.2mb 38f 33f
12:00 7 17 mph 992.2mb 38f 33f
Sa 01/24 11:54 9 14 mph 992.1mb 38f 33f
11:48 5 11 mph 992mb 38f 33f
11:42 6 10 mph 991.8mb 38f 33f
11:36 7 13 mph 991.9mb 38f 33f
11:30 8 16 mph 991.9mb 38f 33f
11:24 10 14 mph 991.8mb 38f 33f
11:18 7 13 mph 991.7mb 38f 33f
11:12 9 14 mph 991.5mb 38f 34f
11:06 10 14 mph 991.5mb 38f 34f
11:00 7 11 mph 991.6mb 38f 34f
10:54 9 14 mph 991.6mb 38f 34f
10:48 8 15 mph 991.4mb 38f 34f
10:42 5 13 mph 991.2mb 38f 34f
10:36 10 15 mph 991.2mb 38f 34f
10:30 8 14 mph 991.2mb 38f 34f
10:24 7 15 mph 991.1mb 38f 34f
10:18 10 16 mph 991.1mb 38f 34f
10:12 8 13 mph 990.9mb 38f 34f
10:06 9 13 mph 990.7mb 38f 35f
10:00 7 15 mph 990.5mb 38f 35f
9:54 14 17 mph 990.5mb 38f 35f
9:48 7 14 mph 990.4mb 38f 35f
9:42 9 13 mph 990.6mb 38f 35f
9:36 9 15 mph 990.7mb 38f 35f
9:30 11 15 mph 990.7mb 38f 35f
9:24 9 11 mph 990.5mb 38f 34f
9:18 8 13 mph 990.4mb 38f 34f
9:12 7 9 mph 990.2mb 38f 34f
9:06 5 7 mph 990mb 38f 34f
9:00 6 11 mph 989.9mb 38f 34f
8:54 6 10 mph 989.8mb 38f 34f
8:48 9 14 mph 989.7mb 38f 34f
8:42 8 15 mph 989.7mb 38f 34f
8:36 9 13 mph 989.6mb 38f 34f
8:30 9 13 mph 989.5mb 37f 34f
8:24 8 15 mph 989.5mb 37f 34f
8:18 8 11 mph 989.4mb 37f 34f
8:12 8 11 mph 989.3mb 37f 33f
8:06 9 13 mph 989.1mb 37f 33f
8:00 6 15 mph 989.2mb 37f 33f
7:54 8 11 mph 989.3mb 38f 33f
7:48 9 13 mph 989.2mb 38f 33f
7:42 8 13 mph 989.2mb 38f 33f
7:36 8 11 mph 989.1mb 38f 33f
7:30 8 13 mph 989mb 37f 33f
7:24 9 14 mph 989mb 37f 33f
7:18 13 15 mph 988.9mb 37f 33f
7:12 10 16 mph 988.9mb 37f 33f
7:06 14 21 mph 988.9mb 37f 33f
7:00 11 16 mph 988.8mb 37f 33f
6:54 10 16 mph 988.6mb 37f 33f
6:48 13 15 mph 988.4mb 37f 33f
6:42 11 15 mph 988.2mb 37f 33f
6:36 11 16 mph 988.2mb 37f 33f
6:30 13 22 mph 988.1mb 37f 33f
6:24 14 17 mph 987.9mb 37f 33f
6:18 11 17 mph 988mb 37f 33f
6:12 10 14 mph 987.7mb 37f 33f
6:06 10 20 mph 987.8mb 37f 33f
6:00 11 17 mph 987.7mb 37f 33f
5:54 13 18 mph 987.7mb 37f 33f
5:48 10 23 mph 987.7mb 37f 33f
5:42 13 16 mph 987.6mb 37f 33f
5:36 10 22 mph 987.5mb 37f 33f
5:30 15 22 mph 987.2mb 36f 33f
5:24 15 20 mph 986.8mb 36f 33f
5:18 11 17 mph 986.5mb 36f 33f
5:12 13 18 mph 986.3mb 36f 33f
5:06 16 23 mph 986.1mb 36f 34f
5:00 11 21 mph 985.9mb 36f 34f
4:54 10 17 mph 985.7mb 36f 34f
4:48 10 17 mph 985.7mb 36f 34f
4:42 10 18 mph 985.8mb 36f 34f
4:36 9 14 mph 985.9mb 36f 34f
4:30 6 18 mph 986.1mb 36f 34f
4:24 10 18 mph 986.2mb 36f 34f
4:18 7 17 mph 986.4mb 36f 34f
4:12 6 17 mph 986.3mb 36f 34f
4:06 8 16 mph 986.6mb 36f 34f
4:00 8 16 mph 986.8mb 36f 34f
3:54 6 17 mph 986.7mb 36f 34f
3:48 9 18 mph 987.1mb 36f 34f
3:42 5 17 mph 987.2mb 36f 34f
3:36 5 16 mph 987.6mb 36f 34f
3:30 6 13 mph 987.8mb 36f 34f
3:24 7 14 mph 988.2mb 36f 34f
3:18 7 21 mph 987.9mb 36f 34f
3:12 6 20 mph 988.5mb 36f 34f
3:06 7 16 mph 989.1mb 36f 34f
3:00 10 16 mph 989.2mb 36f 34f
2:54 9 17 mph 988.2mb 36f 34f
2:48 3 13 mph 988.6mb 36f 34f
2:42 5 11 mph 989.1mb 36f 34f
2:36 5 13 mph 989.9mb 36f 34f
2:30 7 17 mph 990.6mb 36f 34f
2:24 8 15 mph 991mb 36f 34f
2:18 9 15 mph 991.1mb 36f 34f
2:12 3 10 mph 990.8mb 36f 34f
2:06 5 11 mph 990.2mb 36f 34f
2:00 3 13 mph 990.5mb 36f 34f
1:54 7 15 mph 990.6mb 36f 34f
1:48 6 17 mph 990.4mb 37f 34f
1:42 7 14 mph 990.4mb 37f 34f
1:36 6 17 mph 990.8mb 37f 34f
1:30 5 14 mph 990.7mb 37f 34f
1:24 6 15 mph 991.2mb 37f 34f
1:18 2 13 mph 991.8mb 37f 34f
1:12 5 11 mph 992mb 37f 34f
1:06 5 15 mph 991.6mb 37f 34f
1:00 5 14 mph 992mb 37f 34f
12:54 6 13 mph 992mb 37f 34f
12:48 6 11 mph 992.4mb 37f 34f
12:42 7 13 mph 993.5mb 37f 34f
12:36 5 11 mph 993.7mb 37f 34f
12:30 5 13 mph 993.3mb 37f 34f
12:24 6 10 mph 993.7mb 37f 34f
12:18 2 10 mph 994.1mb 37f 34f
12:12 5 10 mph 994.6mb 37f 34f
12:06 3 9 mph 994.7mb 37f 34f
12:00 5 13 mph 994.9mb 37f 34f
11:54 3 8 mph 995.1mb 37f 34f
11:48 3 7 mph 995.3mb 37f 34f
11:42 1 6 mph 995.8mb 37f 34f
11:36 2 8 mph 996.1mb 37f 34f
11:30 3 9 mph 996mb 37f 33f
11:24 5 13 mph 996.2mb 37f 33f
11:18 5 13 mph 996.2mb 37f 34f
11:12 2 10 mph 996.6mb 37f 33f
11:06 3 9 mph 997mb 37f 33f
11:00 3 11 mph 997.6mb 37f 33f
10:54 3 11 mph 998mb 37f 33f
10:48 2 7 mph 998.3mb 37f 33f
10:42 2 8 mph 998.8mb 37f 33f
10:36 3 7 mph 999.2mb 37f 33f
10:30 1 6 mph 1000mb 37f 33f
10:24 2 6 mph 1000mb 37f 33f
10:18 1 5 mph 1000.1mb 37f 33f
10:12 2 5 mph 1000.1mb 37f 33f
10:06 2 5 mph 1000.4mb 37f 33f
10:00 2 3 mph 1000.9mb 37f 33f
9:54 2 6 mph 1001.1mb 37f 33f
9:48 2 3 mph 1001.3mb 37f 33f
9:42 3 6 mph 1001.2mb 37f 33f
9:36 3 5 mph 1001.1mb 37f 33f
9:30 2 5 mph 1001.6mb 37f 33f
9:24 2 6 mph 1001.7mb 37f 33f
9:18 1 5 mph 1001.8mb 37f 33f
9:12 2 6 mph 1001.8mb 37f 33f
9:06 2 5 mph 1001.7mb 37f 33f
9:00 2 7 mph 1001.9mb 37f 33f
8:54 2 7 mph 1001.7mb 37f 33f
8:48 2 6 mph 1001.9mb 37f 33f
8:42 2 7 mph 1002mb 37f 33f
8:36 3 6 mph 1002.1mb 37f 33f
8:30 2 6 mph 1002.3mb 37f 33f
8:24 3 9 mph 1002.6mb 37f 33f
8:18 3 7 mph 1002.9mb 37f 33f
8:12 3 8 mph 1003mb 37f 33f
8:06 3 7 mph 1003.3mb 37f 33f
8:00 2 5 mph 1003.5mb 37f 33f
7:54 2 7 mph 1004mb 37f 33f
7:48 2 5 mph 1004.3mb 37f 33f
7:42  -  mph 1004.6mb 37f 33f
7:36  -  mph 1004.9mb 37f 33f
7:30  -  mph 1005.4mb 37f 33f
7:24  -  mph 1005.4mb 37f 33f
7:18  -  mph 1005.4mb 37f 33f
7:12  -  mph 1005.4mb 37f 33f
7:06  -  mph 1005.6mb 37f 32f
7:00  -  mph 1005.9mb 37f 32f
6:54  -  mph 1006.3mb 37f 32f
6:48  -  mph 1006.5mb 37f 32f
6:42  -  mph 1006.6mb 37f 32f
6:36  -  mph 1006.7mb 37f 32f
6:30  -  mph 1007mb 37f 32f
6:24  -  mph 1007mb 37f 32f
6:18  -  mph 1007.1mb 37f 32f
6:12  -  mph 1007.5mb 37f 32f
6:06  -  mph 1007.5mb 37f 32f
6:00  -  mph 1007.5mb 37f 32f
5:54  -  3 mph 1007.7mb 37f 32f
5:48 3 5 mph - 37f -
5:42 3
mph
- 37f -
5:36 3
mph
- 37f -
5:30 3
mph
1008.3mb 37f 32f
5:24 3
mph
1008.4mb 37f 32f
5:18 2 5 mph 1008.6mb 37f 32f
5:12 3 5 mph 1008.7mb 37f 32f
5:06 5 6 mph 1008.8mb 37f 32f
5:00 5 6 mph 1008.7mb 37f 32f
4:54 3 5 mph 1008.5mb 37f 33f
4:48 3 5 mph 1008.5mb 37f 33f
4:42 3 5 mph 1008.6mb 37f 33f
4:36 3 7 mph 1008.8mb 36f 33f
4:30 6 7 mph 1009mb 36f 33f
4:24 6 7 mph 1009.1mb 36f 33f
4:18 5 8 mph 1009.2mb 36f 33f
4:12 5 9 mph 1009.3mb 36f 34f
4:06 6 10 mph 1009.4mb 36f 34f
4:00 5 9 mph 1009.3mb 36f 34f
3:54 6 10 mph 1009.2mb 36f 34f
3:48 6 8 mph 1009.3mb 36f 35f
3:42 9 11 mph 1009.5mb 36f 35f
3:36 8 11 mph 1009.6mb 36f 35f
3:30 6 11 mph 1009.8mb 36f 35f
3:24 7 13 mph 1009.8mb 36f 35f
3:18 8 13 mph 1009.8mb 36f 35f
3:12 8 13 mph 1010mb 37f 35f
3:06 8 11 mph 1010.2mb 37f 35f
3:00 7 14 mph 1010.2mb 37f 35f
2:54 5 9 mph 1010.2mb 37f 35f
2:48 7 9 mph 1010.5mb 37f 35f
2:42 6 8 mph 1010.5mb 37f 35f
2:36 6 9 mph 1010.6mb 37f 35f
2:30 5 8 mph 1011mb 37f 35f
2:24 7 13 mph 1011.2mb 37f 35f
2:18 7 11 mph 1011.2mb 37f 35f
2:12 8 14 mph 1011.1mb 37f 35f
2:06 9 14 mph 1011.3mb 37f 35f
2:00 8 14 mph 1011.6mb 37f 35f
1:54 8 14 mph 1011.7mb 37f 35f
1:48 8 13 mph 1012.1mb 37f 35f
1:42 6 9 mph 1011.8mb 37f 34f
1:36 8 14 mph 1012mb 37f 34f
1:30 8 11 mph 1012mb 37f 34f
1:24 8 13 mph 1012.1mb 37f 34f
1:18 8 10 mph 1012.2mb 37f 34f
1:12 8 13 mph 1012.4mb 37f 34f
1:06 8 14 mph 1012.5mb 37f 34f
1:00 6 9 mph 1012.7mb 37f 34f
12:54 5 10 mph 1012.8mb 37f 33f
12:48 6 7 mph 1013mb 37f 33f
12:42 5 8 mph 1013.1mb 37f 33f
12:36 5 8 mph 1013.2mb 37f 33f
12:30 6 8 mph 1013.4mb 37f 33f
12:24 6 8 mph 1013.4mb 37f 32f
12:18 6 8 mph 1013.4mb 37f 32f
12:12 5 7 mph 1013.4mb 37f 32f
12:06 6 8 mph 1013.4mb 37f 32f
12:00 5 7 mph 1013.5mb 37f 32f
Fr 01/23 11:54 2 5 mph 1013.5mb 37f 32f
11:48 2 6 mph 1013.5mb 37f 32f
11:42 3 6 mph 1013.6mb 37f 32f
11:36 3 8 mph 1013.7mb 37f 32f
11:30 3 5 mph 1013.8mb 37f 32f
11:24 3 6 mph 1013.8mb 37f 32f
11:18 2 8 mph 1013.9mb 37f 32f
11:12 3 7 mph 1014mb 37f 32f
11:06 3 6 mph 1014mb 37f 32f
11:00 5 6 mph 1014.1mb 37f 32f
10:54 5 8 mph 1014.3mb 37f 32f
10:48 5 8 mph 1014.5mb 37f 32f
10:42 7 10 mph 1014.6mb 37f 32f
10:36 6 8 mph 1015mb 37f 32f
10:30 5 8 mph 1015.1mb 37f 32f
10:24 7 11 mph 1015.1mb 37f 32f
10:18  -  mph 1015.1mb 37f 31f
10:12  -  mph 1015.3mb 37f 31f
10:06  -  mph 1015.3mb 37f 31f
10:00 8 11 mph 1015.5mb - 31f
9:54 6 15 mph 1015.8mb - 31f
9:48 8 13 mph 1015.9mb 37f 31f
9:42 8 11 mph 1016mb 37f 31f
9:36 5 9 mph 1016mb 37f 31f
9:30 5 8 mph 1015.9mb 37f 31f
9:24 6 9 mph 1015.7mb 37f 31f
9:18 3 8 mph 1015.6mb 38f 31f
9:12 2 8 mph 1016mb 38f 32f
9:06 5 7 mph 1016.2mb 38f 32f
9:00 5 7 mph 1016.1mb 38f 32f
8:54 3 6 mph 1016.3mb 38f 32f
8:48 6 9 mph 1016.4mb 38f -
8:42 5 9 mph 1016.6mb 38f -
8:36 3 7 mph 1016.5mb 38f -
8:30 3 6 mph 1016.5mb 38f 32f
8:24 3 6 mph 1016.5mb 38f 32f
8:18 3 7 mph 1016.9mb 38f 32f
8:12 5 8 mph 1017mb 38f 32f
8:06 6 10 mph 1017.1mb 38f 32f
8:00 8 11 mph 1017.1mb 38f 32f
7:54 7 10 mph 1017.2mb 38f 32f
7:48 6 14 mph 1017.1mb 38f 32f
7:42 8 11 mph 1017.1mb 38f 32f
7:36 6 11 mph 1017.3mb 38f 32f
7:30 6 9 mph 1017.4mb 38f 32f
7:24 8 13 mph 1017.5mb 38f 32f
7:18 6 13 mph 1017.7mb 38f 32f
7:12 8 13 mph 1017.7mb 38f 32f
7:06 11 15 mph 1017.8mb 38f 32f
7:00 8 13 mph 1017.8mb 38f 32f
6:54 7 11 mph 1018mb 38f 32f
6:48 8 11 mph 1018mb 38f 32f
6:42 8 11 mph 1018.2mb 38f 32f
6:36 8 10 mph 1017.9mb 38f 32f
6:30 6 11 mph 1017.8mb 37f 32f
6:24 8 10 mph 1017.7mb 37f 32f
6:18 6 11 mph 1017.7mb 37f 33f
6:12 7 15 mph 1017.7mb 37f 33f
6:06 7 10 mph 1017.5mb 37f 33f
6:00 5 10 mph 1017.4mb 37f 33f
5:54 7 11 mph 1017.7mb 37f 33f
5:48 8 13 mph 1017.7mb 37f 33f
5:42 8 14 mph 1017.8mb 37f 33f
5:36 9 14 mph 1017.9mb 37f 34f
5:30 9 13 mph 1017.7mb 37f 34f
5:24 10 14 mph 1017.7mb 37f 34f
5:18 9 14 mph 1017.7mb 37f 34f
5:12 9 14 mph 1017.7mb 37f 34f
5:06 9 11 mph 1017.8mb 37f 35f
5:00 10 11 mph 1017.7mb 37f 35f
4:54 8 16 mph 1017.5mb 37f 35f
4:48 11 16 mph 1017.6mb 37f 35f
4:42 8 16 mph 1017.6mb 37f 35f
4:36 11 16 mph 1017.8mb 37f 36f
4:30 10 15 mph 1017.8mb 37f 36f
4:24 10 15 mph 1017.8mb 37f 37f
4:18 9 13 mph 1017.9mb 37f 37f
4:12 7 13 mph 1017.8mb 37f 38f
4:06 9 14 mph 1018mb 37f 38f
4:00 5 14 mph 1018mb 37f 38f
3:54 10 15 mph 1018.2mb 37f 38f
3:48 8 11 mph 1018.2mb 37f 38f
3:42 6 11 mph 1018.2mb 37f 39f
3:36 10 14 mph 1018.3mb 37f 38f
3:30 9 13 mph 1018.5mb 37f 38f
3:24 10 14 mph 1018.6mb 37f 38f
3:18 7 11 mph 1018.6mb 37f 38f
3:12 10 15 mph 1018.8mb 37f 38f
3:06 10 16 mph 1018.9mb 37f 38f
3:00 9 15 mph 1018.9mb 37f 38f
2:54 13 17 mph 1018.9mb 37f 38f
2:48 9 14 mph 1018.9mb 37f 38f
2:42 10 14 mph 1019mb 37f 38f
2:36 11 14 mph 1018.9mb 37f 38f
2:30 8 13 mph 1019.1mb 37f 38f
2:24 9 11 mph 1019mb 37f 38f
2:18 3 13 mph 1019.1mb 37f 38f
2:12 7 13 mph 1019.2mb 37f 38f
2:06 5 9 mph 1019.3mb 37f 38f
2:00 7 11 mph 1019.4mb 37f 37f
1:54 8 11 mph 1019.4mb 37f 37f
1:48 8 11 mph 1019.4mb 37f 37f
1:42 10 14 mph 1019.5mb 37f 37f
1:36 6 10 mph 1019.6mb 37f 37f
1:30 7 10 mph 1019.7mb 37f 37f
1:24 10 16 mph 1019.9mb 37f 36f
1:18 6 11 mph 1020.1mb 37f 36f
1:12 10 13 mph 1020.2mb 37f 36f
1:06 9 14 mph 1020.4mb 37f 36f
1:00 6 10 mph 1020.5mb 37f 36f
12:54 6 10 mph 1020.8mb 37f 35f
12:48 5 11 mph 1020.9mb 37f 35f
12:42 3 11 mph 1021mb 37f 34f
12:36 7 10 mph 1021.3mb 37f 34f
12:30 9 11 mph 1021.3mb 37f 35f
12:24 5 7 mph 1021.4mb 37f 34f
12:18 6 10 mph 1021.6mb 38f 34f
12:12 8 11 mph 1021.7mb 38f 34f
12:06 7 10 mph 1021.8mb 38f 35f
12:00 7 10 mph 1022mb 38f 35f
11:54 5 11 mph 1022.2mb 38f 34f
11:48 5 8 mph 1022.3mb 38f 34f
11:42 3 8 mph 1022.4mb 38f 34f
11:36 6 10 mph 1022.5mb 38f 33f
11:30 9 14 mph 1022.7mb 38f 34f
11:24 9 13 mph 1022.8mb 38f 33f
11:18 7 13 mph 1023mb 38f 33f
11:12 8 13 mph 1023.2mb 38f 33f
11:06 8 10 mph 1023.4mb 38f 33f
11:00 6 9 mph - - 33f
10:54 7 9 mph - - 32f
10:48 3 8 mph 1023.6mb 38f 32f
10:42 5 8 mph 1023.8mb 38f 32f
10:36 7 10 mph 1023.9mb 38f 32f
10:30 6 9 mph 1024mb 38f 31f
10:24 6 10 mph 1024.1mb 38f 31f
10:18 6 9 mph 1024.2mb 38f 32f
10:12 2 7 mph 1024.2mb 38f 31f
10:06 5 9 mph 1024.3mb 38f 31f
10:00 9 11 mph 1024.4mb 38f 31f
9:54 5 10 mph 1024.5mb 38f 30f
9:48  -  mph - - 30f
9:42  -  mph - - 30f
9:36  -  mph - - 29f
9:30 5 8 mph 1024.7mb 38f 29f
9:24 5 7 mph 1024.7mb 38f 29f
9:18 6 8 mph 1024.7mb 38f 28f
9:12 6 7 mph 1024.8mb 38f 28f
9:06 3 9 mph 1024.8mb 38f 28f
9:00 7 9 mph 1024.9mb 38f 28f
8:54 3 7 mph 1025mb 38f 28f
8:48 6 10 mph 1025mb 38f 28f
8:42 6 8 mph 1025mb 39f 27f
8:36 8 9 mph 1025.1mb 39f 26f
8:30 5 9 mph 1025.1mb 39f 26f
8:24 7 9 mph 1025.2mb 39f 26f
8:18 6 8 mph 1025.2mb 39f 26f
8:12 6 8 mph 1025.2mb 39f 26f
8:06 5 7 mph 1025.1mb 39f 25f
8:00 6 7 mph 1024.9mb 39f 25f
7:54 5 7 mph 1025mb 39f 25f
7:48 5 7 mph 1024.9mb 38f 25f
7:42 5 7 mph 1024.9mb 38f 25f
7:36 8 10 mph 1024.9mb 38f 24f
7:30 7 9 mph 1025mb 38f 24f
7:24 6 9 mph 1025mb 38f 24f
7:18 8 10 mph 1025.1mb 38f 24f
7:12 3 6 mph 1025.2mb 37f 24f
7:06 5 8 mph 1025.3mb 37f 24f
7:00 6 8 mph 1025.3mb 37f 24f
6:54 6 9 mph 1025.2mb 37f 24f
6:48 6 10 mph 1025.2mb 37f 24f
6:42 8 10 mph 1025.1mb 37f 24f
6:36 8 11 mph 1025.1mb 37f 24f
6:30 8 11 mph 1025.1mb 37f 24f
6:24 8 10 mph 1025mb 37f 24f
6:18 8 13 mph 1025mb 37f 24f
6:12 7 10 mph 1024.9mb 37f 24f
6:06 7 10 mph 1024.9mb 37f 24f